Regional Weather Roundup
Issued by NWS State College, PA

Home | Current Version | Previous Version | Text Only | Print | Product List | Glossary Off
Versions: 1 2 3 4 5 6 7 8 9 10 11 12 13 14 15 16 17 18 19 20 21 22 23 24 25 26 27 28 29 30 31 32 33 34 35 36 37 38 39 40 41 42 43 44 45 46 47 48 49 50

000
ASUS41 KCTP 070503
RWRCTP

REGIONAL WEATHER ROUNDUP
NATIONAL WEATHER SERVICE STATE COLLEGE PA
100 AM EDT THU MAY 07 2015

Note: "fair" indicates few or no clouds below 12,000 feet with no
significant weather and/or obstructions to visibility.

* = STATION THAT DOES NOT REPORT PRECIPITATION /E.G. RAIN...SNOW...ETC/
    THUNDER OR FOG.

PAZ002>004-007>009-013>016-020>023-029>032-070600-
WESTERN PENNSYLVANIA

CITY           SKY/WX    TMP DP  RH WIND       PRES   REMARKS
ERIE           CLEAR     56  53  90 CALM      30.18S
MEADVILLE      CLEAR     58  55  90 CALM      30.19S
FRANKLIN*      CLEAR     59  54  82 E6        30.21S
NEW CASTLE     FAIR      59  59 100 CALM      30.19S
BEAVER COUNTY  NOT AVBL
BUTLER*        CLEAR     61  57  88 E3        30.20S
PITTSBURGH INT PTCLDY    65  60  84 E5        30.17S
PITTSBURGH     CLEAR     63  58  83 E5        30.17S
INDIANA*       CLOUDY    63  59  88 VRB3      30.23S
LATROBE        CLEAR     61  59  94 CALM      30.20S
WASHINGTON CO* CLEAR     57  54  88 CALM      30.19S
$$

PAZ004>006-010>012-017>019-024>028-033>037-041-042-045-046-049>053-070600-
CENTRAL PENNSYLVANIA

CITY           SKY/WX    TMP DP  RH WIND       PRES   REMARKS
BRADFORD       FOG       54  54 100 SE7       30.24R VSB 1/2
DUBOIS         PTCLDY    57  54  89 E7        30.21S FOG
CLEARFIELD     CLOUDY    56  54  93 NE3       30.23S FOG
JOHNSTOWN      CLEAR     58  56  93 SW6       30.22F FOG
ALTOONA        CLOUDY    59  56  89 CALM      30.22F
STATE COLLEGE  CLEAR     54  53  98 CALM      30.24S FOG
WILLIAMSPORT   MOCLDY    55  53  93 NW3       30.23S
SELINSGROVE    CLOUDY    55  54  96 CALM      30.24S FOG
FT INDIANTOWN  CLOUDY    59  49  68 N3        30.23S
CAPITAL CITY   CLOUDY    59  52  77 E3        30.23S
HARRISBURG     CLOUDY    59  54  83 NE3       30.22S
YORK           PTCLDY    57  52  83 CALM      30.22S
$$

PAZ038>040-043-044-047-048-054-055-060>062-067>071-070600-
EASTERN PENNSYLVANIA

CITY           SKY/WX    TMP DP  RH WIND       PRES   REMARKS
SCRANTON       PTCLDY    54  47  77 E7        30.24R
MOUNT POCONO   CLEAR     45  42  89 NE3       30.25S
ALLENTOWN      PTCLDY    55  48  77 CALM      30.24S
QUAKERTOWN*    CLEAR     48  46  93 CALM      30.25S
READING        CLOUDY    58  51  78 CALM      30.23R
LANCASTER      CLOUDY    57  50  77 E3        30.23R
COATESVILLE    MOCLDY    59  50  72 E3        30.24S
POTTSTOWN      CLOUDY    56  50  80 CALM      30.25S
BLUE BELL      CLEAR     54  52  94 CALM      30.23S
DOYLESTOWN     CLEAR     52  48  86 CALM      30.23S
WILLOW GROVE   NOT AVBL
NORTH PHILA    CLEAR     56  47  71 NE5       30.26R
PHILADELPHIA   PTCLDY    58  51  78 E5        30.24S
$$


USA.gov is the U.S. government's official web portal to all federal, state and local government web resources and services.